Location: Bayou Vista
(29.6905°N, 91.2709°W)
Time: 05:25:19
(UTC+00:00)

ACS3 Solar Sail - Visible Passes

Search period start: 14 July 2024 00:00
Search period end: 24 July 2024 00:00
Orbit: 992 x 1023 km, 97.4° (Epoch: 13 July)

Date Brightness Start Highest point End Pass type
(mag) Time Alt. Az. Time Alt. Az. Time Alt. Az.
14 Jul 6.0 02:25:13 19° ESE 02:27:48 25° ENE 02:32:42 10° NNE visible
14 Jul 5.7 04:10:33 36° WSW 04:11:35 38° W 04:17:20 10° NNW visible
15 Jul 5.1 03:00:02 39° ESE 03:01:56 52° ENE 03:07:55 10° N visible
15 Jul 6.7 04:45:23 18° WSW 04:46:14 18° W 04:50:18 10° NW visible
16 Jul 6.7 01:50:39 10° E 01:52:57 12° ENE 01:55:14 10° NE visible
16 Jul 4.8 03:34:52 56° S 03:36:15 78° W 03:42:30 10° NNW visible
17 Jul 6.0 02:24:20 20° ESE 02:26:54 26° ENE 02:31:54 10° NNE visible
17 Jul 5.8 04:09:41 35° WSW 04:10:44 37° W 04:16:26 10° NNW visible
18 Jul 5.0 02:59:10 40° SE 03:01:03 53° ENE 03:07:05 10° N visible
18 Jul 6.8 04:44:30 17° WSW 04:45:22 17° W 04:49:19 10° NW visible
19 Jul 6.7 01:49:30 10° E 01:52:03 13° ENE 01:54:36 10° NE visible
19 Jul 4.8 03:33:59 55° SSW 03:35:22 75° WSW 03:41:37 10° NNW visible
20 Jul 5.9 02:23:27 21° ESE 02:26:01 27° ENE 02:31:06 10° NNE visible
20 Jul 5.9 04:08:48 33° WSW 04:09:52 36° W 04:15:31 10° NNW visible
21 Jul 5.0 02:58:17 41° SE 03:00:10 55° ENE 03:06:14 10° N visible
21 Jul 6.8 04:43:37 16° WSW 04:44:31 17° W 04:48:19 10° NW visible
22 Jul 6.6 01:48:24 10° E 01:51:09 13° ENE 01:53:55 10° NE visible
22 Jul 4.9 03:33:07 54° SSW 03:34:30 73° W 03:40:44 10° NNW visible
23 Jul 5.9 02:22:36 21° ESE 02:25:07 28° ENE 02:30:17 10° NNE visible
23 Jul 5.9 04:07:57 32° WSW 04:09:00 34° W 04:14:37 10° NNW visible
